Regional Weather Roundup
Issued by NWS

Home | Current Version | Previous Version | Graphics & Text | Print | Product List | Glossary On
Versions: 1 2 3 4 5 6 7 8 9 10 11 12 13 14 15 16 17 18 19 20 21 22 23 24 25 26 27
000
ASUS45 KCYS 281710
RWRWY

WYOMING REGIONAL WEATHER ROUNDUP
NATIONAL WEATHER SERVICE CHEYENNE WY
1100 AM MDT SUN AUG 28 2016

NOTE:  "FAIR" INDICATES FEW OR NO CLOUDS BELOW 12,000 FEET
WITH NO SIGNIFICANT WEATHER AND/OR OBSTRUCTIONS TO VISIBILITY.

WYZ001-281800-
YELLOWSTONE NATIONAL PARK

CITY           SKY/WX    TMP DP  RH WIND       PRES   REMARKS
LK YELLOWSTONE   N/A     55  40  56 VRB3      30.37R
W YELLOWSTONE  NOT AVBL

$$
WYZ002>013-054>058-071-098>099-281800-
NORTHERN WYOMING

CITY           SKY/WX    TMP DP  RH WIND       PRES   REMARKS
JACKSON        SUNNY     57  27  30 CALM      30.29S
CODY           FAIR      75  34  22 W7        30.13S
GREYBULL       FAIR      72  34  24 CALM      30.07R
WORLAND        FAIR      73  35  25 VRB3      30.08S
SHERIDAN       FAIR      83  37  19 E5        30.03R
BUFFALO        FAIR      85  27  12 NE8       30.10R
GILLETTE       FAIR      81  32  17 VRB5      30.05R
HULETT         FAIR      79  45  29 W5        30.06S
NEWCASTLE      FAIR      73  39  29 S6        30.08R

$$
WYZ014>020-022>026-101>103-281800-
CENTRAL WYOMING

CITY           SKY/WX    TMP DP  RH WIND       PRES   REMARKS
BIG PINEY      FAIR      66  30  26 E6        30.33S
PINEDALE       FAIR      66  28  24 E5        30.34S
DUBOIS         FAIR      70  23  17 NW13G28   30.29R
LANDER         FAIR      78  32  18 N6        30.17R
RIVERTON       FAIR      77  32  19 CALM      30.17S
CASPER         FAIR      77  34  21 S17       30.17R
DOUGLAS        FAIR      83  36  18 W14       30.14R

$$
WYZ021-027>030-104>119-281800-
SOUTHERN WYOMING

CITY           SKY/WX    TMP DP  RH WIND       PRES   REMARKS
EVANSTON       FAIR      71  31  22 SW14      30.34R
FORT BRIDGER   FAIR      75  24  15 W10G18    30.36R
ROCK SPRINGS   FAIR      71  28  20 W13       30.31S
DIXON          FAIR      73  37  26 W9        30.33S
RAWLINS        FAIR      72  30  21 W17       30.30R
SARATOGA       FAIR      73  32  21 SE8       30.31F
LARAMIE        FAIR      71  30  21 VRB5      30.31S
CHEYENNE       FAIR      80  28  15 VRB3      30.23R
TORRINGTON     FAIR      80  37  21 VRB3      30.09S
PINE BLUFFS    FAIR      77  36  22 E3        30.18S

$$




USA.gov is the U.S. government's official web portal to all federal, state and local government web resources and services.